This is the latest recevied weather packets stored in our database for station/object N6DZK. If no packets are shown the sender has not sent any weather packets the latest 10 day(s).
| Time | Temp. | Humidity | Pressure | Rain* | Wind** | Luminosity | Snow |
|---|---|---|---|---|---|---|---|
| 1777904607 | 11.11° C | 97% | 1015.7 hPa | 0 mm | - | 98 W/m² | - |
| 1777904304 | 11.11° C | 97% | 1015.6 hPa | 0 mm | - | 86 W/m² | - |
| 1777904001 | 10.56° C | 98% | 1015.7 hPa | 0 mm | - | 77 W/m² | - |
| 1777903697 | 10° C | 98% | 1015.6 hPa | 0 mm | - | 69 W/m² | - |
| 1777903393 | 8.89° C | 98% | 1015.9 hPa | 0 mm | - | 60 W/m² | - |
| 1777903090 | 7.22° C | 98% | 1015.7 hPa | 0 mm | - | 53 W/m² | - |
| 1777902787 | 6.11° C | 98% | 1015.6 hPa | 0 mm | - | 40 W/m² | - |
| 1777902484 | 6.11° C | 97% | 1015.6 hPa | 0 mm | - | 29 W/m² | - |
| 1777902180 | 6.11° C | 97% | 1015.6 hPa | 0 mm | - | 26 W/m² | - |
| 1777901879 | 6.11° C | 97% | 1015.3 hPa | 0 mm | - | 22 W/m² | - |
| 1777901576 | 6.11° C | 97% | 1015.3 hPa | 0 mm | - | 19 W/m² | - |
| 1777901273 | 6.11° C | 97% | 1015.4 hPa | 0 mm | - | 15 W/m² | - |
| 1777900971 | 6.11° C | 97% | 1015.3 hPa | 0 mm | - | 11 W/m² | - |
| 1777900668 | 6.11° C | 97% | 1015.2 hPa | 0 mm | - | 7 W/m² | - |
| 1777900365 | 6.11° C | 97% | 1015.3 hPa | 0 mm | - | 5 W/m² | - |
| 1777900062 | 6.11° C | 97% | 1015.1 hPa | 0 mm | - | 3 W/m² | - |
| 1777899758 | 6.11° C | 97% | 1015.2 hPa | 0 mm | - | 1 W/m² | - |
| 1777899455 | 6.11° C | 97% | 1015.1 hPa | 0 mm | - | 1 W/m² | - |
| 1777899153 | 6.11° C | 97% | 1015.2 hPa | 0 mm | - | 0 W/m² | - |
| 1777898851 | 6.11° C | 97% | 1015.2 hPa | 0 mm | - | 0 W/m² | - |
| 1777898548 | 6.11° C | 97% | 1015.3 hPa | 0 mm | - | 0 W/m² | - |
| 1777898245 | 6.11° C | 97% | 1015.1 hPa | 0 mm | - | 0 W/m² | - |
| 1777897942 | 6.11° C | 97% | 1015 hPa | 0 mm | - | 0 W/m² | - |
| 1777897638 | 6.11° C | 97% | 1015 hPa | 0 mm | - | 0 W/m² | - |
| 1777897334 | 6.11° C | 97% | 1015.2 hPa | 0 mm | - | 0 W/m² | - |
* Rain latest hour (hover to see other rain measurements)
** Current wind speed in m/s (hover to see current wind gust speed)